Regional Weather Roundup
Issued by NWS

Home | Current Version | Previous Version | Graphics & Text | Print | Product List | Glossary On
Versions: 1 2 3 4 5 6 7 8 9 10 11 12 13 14 15 16 17 18 19 20 21 22 23 24 25 26 27 28 29 30 31 32 33 34 35 36 37 38 39 40 41 42 43 44 45 46 47 48 49 50
172
ASUS43 KFSD 112210
RWRSD

WEATHER ROUNDUP FOR SOUTH DAKOTA
NATIONAL WEATHER SERVICE SIOUX FALLS SD
400 PM CST THU FEB 11 2016

NOTE: "FAIR" INDICATES FEW OR NO CLOUDS BELOW 12,000 FEET WITH NO
SIGNIFICANT WEATHER AND/OR OBSTRUCTIONS TO VISIBILITY.


SDZ001>005-009-010-012>017-112300-
NORTHWEST AND NORTH CENTRAL SOUTH DAKOTA

CITY           SKY/WX    TMP DP  RH WIND       PRES   REMARKS
BUFFALO          N/A     38  30  73 N22       30.00R
FAITH            N/A     34  28  79 N7        30.06R WCI  28
MOBRIDGE       LGT SNOW  29  24  82 NE3       30.09R
$$

SDZ012>016-024>037-041>051-057-063-072>074-112300-
SOUTHWEST AND SOUTH CENTRAL SOUTH DAKOTA

CITY           SKY/WX    TMP DP  RH WIND       PRES   REMARKS
RAPID CTY ARPT NOT AVBL
PIERRE         CLOUDY    29  25  85 E8        30.08R WCI  21
CUSTER         SUNNY     47  19  33 NW21G41   30.05R
ELLSWORTH AFB  PTSUNNY   55  28  35 N29G48    30.02
PHILIP         CLOUDY    45  32  60 N10       30.02R
PINE RIDGE     PTSUNNY   57  26  30 N16G25    30.02R
SPEARFISH      FAIR      50  27  40 NW23G32   30.08R
WINNER         CLOUDY    34  27  75 NE15      30.03R WCI  24
$$

SDZ004>011-016>023-039-040-112300-
NORTHEAST SOUTH DAKOTA

CITY           SKY/WX    TMP DP  RH WIND       PRES   REMARKS
ABERDEEN       CLOUDY    23  18  81 NE3       30.16R
WATERTOWN      LGT SNOW  19  14  81 S6        30.11S WCI  11
BROOKINGS      LGT SNOW  17  13  84 S8        30.13R FOG     WCI   7
SISSETON         N/A     16  12  84 S6        30.17R WCI   7
$$

SDZ017-020-022-023-036>040-048>070-112300-
SOUTHEAST SOUTH DAKOTA

CITY           SKY/WX    TMP DP  RH WIND       PRES   REMARKS
SIOUX FALLS    LGT SNOW  18  13  80 S6        30.14S WCI  10
HURON          LGT SNOW  24  19  81 E5        30.14R WCI  18
CHAMBERLAIN    LGT SNOW  27  24  90 E6        30.08R WCI  20
MITCHELL       LGT SNOW  22  19  89 SE8       30.14R FOG     WCI  12
YANKTON        CLOUDY    21  18  86 E8        30.13S WCI  12
$$

ABBREVIATIONS USED IN REMARKS
   TC - TEMPERATURE IN CELSIUS
  WCI - WIND CHILL INDEX
   HX - HEAT INDEX
  VSB - VISIBILITY





USA.gov is the U.S. government's official web portal to all federal, state and local government web resources and services.